Location: Kershaw
(34.5481°N, 80.5823°W)
Time: 16:17:24
(UTC+00:00)

Transit 2A - Pass Details

Date: 07 October 2022
Orbit: 598 x 959 km, 66.7° (Epoch: 06 December)

Event Time Altitude Azimuth Distance (km) Brightness Sun altitude
Rises 01:33:48 0° 159° (SSE) 2,970 - -32.3°
Reaches altitude 10° 01:37:36 10° 127° (SE) 2,000 - -33.0°
Maximum altitude 01:39:12 12° 106° (ESE) 1,865 - -33.4°
Drops below altitude 10° 01:40:46 10° 85° (E) 1,965 - -33.7°
Sets 01:44:24 0° 53° (NE) 2,847 - -34.4°
